Flag for Austria Weather past 2 weeks in Stockerau, Lower Austria, Austria

Now
72 °F

Passing clouds.


Feels Like: 77 °F
Forecast: 54 / 81 °F
Wind: 5 mph from North

Location: Tulln Airport

Current Time: Jul 31, 2015 at 12:00:59 PM

Latest Report: Jul 31, 2015 at 10:50 AM


Visibility: 25 mi

Pressure: 30.07 "Hg

Humidity: 41%

Dew point: 46 °F

Location of StockerauLocation

Historic Weather in Stockerau — Graph

°F

Stockerau temperature yesterday

Maximum temperature yesterday: 77 °F (at 3:50 PM)
Minimum temperature yesterday: 57 °F (at 5:50 AM)
Average temperature yesterday: 69 °F

Past Weeks' High & Low Weather Summary

 TemperatureHumidityPressure
High100 °F (Jul 22, 2:50 PM)100% (Jul 29, 6:50 AM)30.12 "Hg (Jul 29, 6:50 AM)
Low57 °F (Jul 28, 5:50 AM)23% (Jul 18, 3:50 PM)29.71 "Hg (Jul 25, 5:50 AM)
Average77 °F57%29.91 "Hg
* Reported Jul 16 10:50 AM — Jul 31 10:50 AM, Stockerau, Weather by CustomWeather, © 2015

Note: Actual official high and low records may vary slightly from our data, if they occured in-between our weather recording intervals... More about our weather records

Advertising

Stockerau weather history for previous 24 hours

 ConditionsComfort  
Time TempWeatherWind HumidityBarometerVisibility
10:50 AM
Fri, Jul 31
72 °FPassing clouds.5 mph41%30.07 "Hg25 mi
9:50 AM72 °FPassing clouds.2 mph47%30.07 "Hg25 mi
8:50 AM66 °FPartly sunny.3 mph64%30.07 "Hg25 mi
7:50 AM63 °FScattered clouds.1 mph77%30.07 "Hg25 mi
6:50 AM61 °FPartly sunny.3 mph77%30.04 "Hg19 mi
5:50 AM59 °FPartly cloudy.3 mph82%30.04 "Hg19 mi
10:50 PM
Thu, Jul 30
61 °FPassing clouds.6 mph72%29.98 "Hg16 mi
9:50 PM63 °FPassing clouds.6 mph64%29.98 "Hg16 mi
8:50 PM66 °FPassing clouds.8 mph56%29.95 "Hg22 mi
7:50 PM70 °FPassing clouds.12 mph46%29.95 "Hg22 mi
6:50 PM73 °FPassing clouds.16 mph41%29.92 "Hg22 mi
5:50 PM75 °FPassing clouds.15 mph36%29.92 "Hg25 mi
4:50 PM75 °FScattered clouds.13 mph36%29.95 "Hg31 mi
3:50 PM77 °FScattered clouds.12 mph39%29.95 "Hg31 mi
2:50 PM75 °FScattered clouds.13 mph39%29.95 "Hg31 mi
1:50 PM75 °FScattered clouds.12 mph39%29.95 "Hg25 mi
12:50 PM73 °FScattered clouds.10 mph44%29.98 "Hg25 mi
Weather by CustomWeather, © 2015

See weather overviewHow to use our weather pages